SL-16 DEB, 26968

Orbit data source: Space-Track

SL-16 DEB, 26968 is space debris in LEO originally from a launch on Fri, 26 Mar 1993 UTC launched from the Tyuratam Missile And Space Complex (TTMTR). Debris objects in space refer to the collection of defunct objects orbiting the Earth. Examples of debris include non-operational satellites, rocket bodies, and fragments generated from explosions, collisions, or faulty payload assembly.

Loading next visibility...
Identifier
26968, 1993-016AJ
Orbit
LEO
Country
Flag of CISCIS
Related business
Manufacturer
Unknown
Mission
Spacecraft
Bus & Motor
Unknown
Mass
Unknown
Launch date (UTC)
1993-03-26 (33 years ago)
Launch vehicle
Unknown
Launch site
Tyuratam Missile And Space Complex (TTMTR)
Object type
Payload
Rocket body
Debris
Shape & HBR
Unknown shape, 0.1 m
Radar Cross Section
Medium (>0.1 m² and <1 m²)

Expand to show TLE details & history
Last TLE update: 12 hours ago

TLE from 12 hours ago
0 SL-16 DEB
1 26968U 93016AJ  26256.49878174  .00001434  00000-0  43433-3 0  9991
2 26968  70.9929  68.5098 0005917  84.5630 307.1630 14.43976850742058
Epoch: 2026-09-13T11:58Z
TLE epoch observation values (Epoch: 2026-09-13T11:58:14.742Z)
Latitude
29.82484°
Longitude
-92.21648°
Altitude
746.076 km
Speed
7.486 km/s
True Right ascension
05h 19m 21s
True Declination
29° 40' 35"
Sunlit
Object was in daylight at epoch
Visualization orbit readout
Latitude
Unknown
Longitude
Unknown
Altitude
Unknown
Speed
Unknown
Apparent Right ascension
Unknown
Apparent Declination
Unknown
Sunlit
N/A
Visualization observer readout
Local Sidereal Time
16:28:59
Azimuth
Unknown
Elevation
Unknown
Doppler factor
Unknown
Orbital elements
Apogee altitude
747.5 km
Perigee altitude
739.073 km
Semi-major axis
7,121.423 km
Eccentricity
0.00059
Inclination
70.9929°
RAAN
68.5098°
Arg. of periapsis
84.563°
True anomaly
307.10894°
Mean anomaly
307.163°
Eccentric anomaly
307.13597°
Mean motion
3.61154 °/min
Orbital period
99.68 mins
BSTAR
0.00043433
Loading maneuver chart data...
Computing Atmospheric mass density...
Loading historical data...
Loading historical data...
Loading historical data...
Loading historical data...
Loading historical data...
Loading historical data...
Loading historical data...

Documentation

Showing up to 5 results
|